Waarnemingen

Advertentie
Mijn weer
Brignogan, Frankrijk (7107): temperatuur & dauwpunt: 12.12.2017 21:00:00 - 18.12.2017 21:00:00 (CET)Brignogan, Frankrijk (7107): windsnelheid & windstoten: 12.12.2017 21:00:00 - 18.12.2017 21:00:00 (CET)Brignogan, Frankrijk (7107): windrichting: 12.12.2017 21:00:00 - 18.12.2017 21:00:00 (CET)Brignogan, Frankrijk (7107): luchtdruk: 12.12.2017 21:00:00 - 18.12.2017 21:00:00 (CET)Brignogan, Frankrijk (7107): zicht: 12.12.2017 21:00:00 - 18.12.2017 21:00:00 (CET)Brignogan, Frankrijk (7107): neerslag: 12.12.2017 21:00:00 - 18.12.2017 21:00:00 (CET)
Datum & Tijd tt [°C] td [°C] ff [km/u] ff [kn] fx [km/u] fx [kn] dd ppp [hPa] vv [km] rr [mm]
18.12.2017 21:00:00 7,7 5,2 9 5 17 9 OZO 1033,6 - 0,0
18.12.2017 20:00:00 8,1 5,2 6 3 22 12 OZO 1032,7 - 0,0
18.12.2017 19:00:00 9,6 6,1 18 10 31 17 O 1032,0 20 0,0
18.12.2017 18:00:00 10,1 5,7 26 14 32 17 ONO 1031,4 - 0,0
18.12.2017 17:00:00 10,3 5,9 26 14 32 17 ONO 1031,1 - 0,0
18.12.2017 16:00:00 10,6 6,7 20 11 24 13 ONO 1030,5 25 0,0
18.12.2017 15:00:00 11,1 7,2 21 11 29 15 ONO 1030,4 - 0,0
18.12.2017 14:00:00 11,8 7,9 22 12 31 17 O 1030,2 - 0,0
18.12.2017 13:00:00 12,0 8,5 16 9 22 12 NO 1030,4 25 0,0
18.12.2017 12:00:00 11,8 8,3 16 9 24 13 N 1030,2 - 0,0
18.12.2017 11:00:00 11,4 9,1 17 9 21 12 NNO 1029,7 - 0,0
18.12.2017 10:00:00 10,9 9,8 14 8 24 13 N 1029,0 20 0,0
18.12.2017 09:00:00 11,1 10,3 15 8 24 13 NNW 1028,3 - 0,0
18.12.2017 08:00:00 11,1 10,5 20 11 32 17 N 1027,6 - 0,0
18.12.2017 07:00:00 11,1 10,5 24 13 35 19 NNW 1026,9 8 0,0
18.12.2017 06:00:00 11,2 10,6 20 11 43 23 NW 1026,8 - 0,0
18.12.2017 05:00:00 11,5 10,9 22 12 43 23 W 1026,1 - 0,0
18.12.2017 04:00:00 11,8 11,0 15 8 49 26 W 1026,4 - 0,0
18.12.2017 03:00:00 11,8 11,0 25 14 48 26 W 1026,1 - 0,0
18.12.2017 02:00:00 11,8 11,0 37 20 49 26 W 1026,6 - 0,0
18.12.2017 01:00:00 11,6 10,8 29 15 48 26 WZW 1026,7 - 0,0
18.12.2017 00:00:00 11,5 10,6 24 13 39 21 WZW 1027,6 - 0,2
17.12.2017 23:00:00 11,5 10,2 28 15 44 24 W 1027,7 - 0,2
17.12.2017 22:00:00 11,8 9,4 31 17 48 26 WZW 1026,9 - 0,0
17.12.2017 21:00:00 11,4 8,8 26 14 48 26 ZW 1026,3 - 0,0
17.12.2017 20:00:00 10,7 8,1 23 12 37 20 ZW 1026,5 - 0,0
17.12.2017 19:00:00 10,8 8,0 22 12 38 20 ZW 1026,7 22 0,0
17.12.2017 18:00:00 11,1 7,6 21 11 34 18 ZW 1027,2 - 0,0
17.12.2017 17:00:00 11,4 7,5 22 12 37 20 WZW 1027,6 - 0,0
17.12.2017 16:00:00 11,7 7,4 24 13 36 19 WZW 1027,3 22 0,0
17.12.2017 15:00:00 11,3 7,2 19 10 34 19 WZW 1028,0 - 0,0
17.12.2017 14:00:00 11,4 7,3 23 12 35 19 WZW 1028,0 - 0,0
17.12.2017 13:00:00 11,0 7,1 19 11 29 16 WZW 1028,0 25 0,0
17.12.2017 12:00:00 10,5 6,6 10 5 21 11 ZZW 1028,4 - 0,0
17.12.2017 11:00:00 10,4 5,8 11 6 25 13 ZW 1028,4 - 0,0
17.12.2017 10:00:00 10,7 5,4 18 10 32 17 W 1028,3 22 0,0
17.12.2017 09:00:00 10,3 5,5 26 14 34 18 WNW 1028,0 - 0,0
17.12.2017 08:00:00 10,4 4,7 27 15 35 19 WNW 1027,7 - 0,0
17.12.2017 07:00:00 10,5 5,3 29 16 38 21 WNW 1027,6 25 0,0
17.12.2017 06:00:00 10,4 6,0 29 15 39 21 WNW 1027,4 - 0,0
17.12.2017 05:00:00 10,6 5,1 34 19 41 22 WNW 1027,4 - 0,0
17.12.2017 04:00:00 10,6 6,5 36 19 44 24 W 1027,6 - 0,0
17.12.2017 03:00:00 10,7 5,9 35 19 44 24 WNW 1027,2 - 0,0
17.12.2017 02:00:00 10,6 5,8 34 18 44 24 WNW 1027,1 - 0,0
17.12.2017 01:00:00 10,6 5,8 34 19 45 24 WNW 1027,3 - 0,0
17.12.2017 00:00:00 10,5 5,5 34 19 48 26 WNW 1027,3 - 0,0
16.12.2017 23:00:00 10,4 5,6 37 20 48 26 WNW 1027,0 - 0,0
16.12.2017 22:00:00 10,2 5,2 29 16 46 25 WNW 1026,7 - 0,0
16.12.2017 21:00:00 10,0 4,6 37 20 49 26 WNW 1026,9 - 0,0
16.12.2017 20:00:00 9,6 4,0 33 18 42 23 WNW 1026,5 - 0,0
16.12.2017 19:00:00 9,4 3,6 29 15 42 23 WNW 1026,4 25 0,0
16.12.2017 18:00:00 9,5 3,7 27 14 38 21 WNW 1025,9 - 0,0
16.12.2017 17:00:00 9,3 2,4 26 14 34 19 WNW 1025,6 - 0,0
16.12.2017 16:00:00 9,4 2,5 23 13 36 19 NW 1025,0 25 0,0
16.12.2017 15:00:00 9,1 2,2 23 12 35 19 NNW 1024,4 - 0,0
16.12.2017 14:00:00 9,2 1,6 23 12 34 18 NNW 1024,4 - 0,0
16.12.2017 13:00:00 9,3 1,4 24 13 40 21 N 1023,9 25 0,0
16.12.2017 12:00:00 9,1 2,2 33 18 50 27 NNW 1023,8 - 0,0
16.12.2017 11:00:00 8,7 1,6 38 21 55 30 NNW 1023,0 - 0,0
16.12.2017 10:00:00 8,9 2,2 36 20 55 30 NNW 1021,9 22 0,0
16.12.2017 09:00:00 8,8 2,4 37 20 54 29 NNW 1021,1 - 0,0
16.12.2017 08:00:00 8,8 2,8 41 22 57 31 NNW 1020,2 - 0,0
16.12.2017 07:00:00 8,4 3,4 29 16 48 26 N 1019,7 20 0,0
16.12.2017 06:00:00 7,4 3,3 26 14 57 31 N 1019,2 - 1,0
16.12.2017 05:00:00 8,2 2,8 34 18 68 37 NNW 1018,4 - 0,2
16.12.2017 04:00:00 8,0 4,4 40 22 67 36 NNW 1018,0 - 1,0
16.12.2017 03:00:00 9,1 3,7 39 21 55 30 N 1017,1 - 0,0
16.12.2017 02:00:00 8,7 3,3 32 17 58 32 N 1016,5 - 0,0
16.12.2017 01:00:00 8,0 3,1 36 20 63 34 N 1016,3 - 0,2
16.12.2017 00:00:00 9,3 2,6 36 19 58 32 N 1015,2 - 0,0
15.12.2017 23:00:00 9,2 3,4 38 20 66 35 N 1014,2 - 0,2
15.12.2017 22:00:00 9,7 4,3 34 18 63 34 N 1013,6 - 0,0
15.12.2017 21:00:00 9,9 3,6 42 23 66 36 N 1012,7 - 0,0
15.12.2017 20:00:00 10,1 4,2 44 24 66 35 N 1011,7 - 0,0
15.12.2017 19:00:00 9,9 5,1 45 25 69 37 NNW 1010,3 16 0,0
15.12.2017 18:00:00 9,6 5,0 46 25 70 38 NNW 1009,7 - 0,0
15.12.2017 17:00:00 9,5 5,3 46 25 70 38 NNW 1008,6 - 0,0
15.12.2017 16:00:00 9,2 5,2 46 25 77 42 NNW 1007,5 16 0,2
15.12.2017 15:00:00 9,6 4,6 50 27 71 38 NW 1006,8 - 0,0
15.12.2017 14:00:00 10,4 3,9 53 29 74 40 NNW 1006,3 - 0,0
15.12.2017 13:00:00 10,2 4,1 53 29 74 40 NNW 1005,7 18 0,0
15.12.2017 12:00:00 10,0 4,4 57 31 76 41 NW 1004,9 - 0,0
15.12.2017 11:00:00 8,8 4,8 61 33 102 55 NNW 1004,1 - 0,4
15.12.2017 10:00:00 9,7 5,3 63 34 94 51 NW 1002,8 15 0,2
15.12.2017 09:00:00 10,1 4,0 66 35 90 49 NW 1001,6 - 0,0
15.12.2017 08:00:00 10,2 4,8 60 33 74 40 NW 1001,3 - 0,0
15.12.2017 07:00:00 10,1 5,3 51 28 68 37 NW 1000,4 15 0,0
15.12.2017 06:00:00 9,4 4,8 45 24 82 45 W 1000,1 - 0,0
15.12.2017 05:00:00 10,1 4,7 45 25 69 38 W 1000,1 - 0,0
15.12.2017 04:00:00 10,0 3,5 47 26 70 38 WNW 1000,4 - 0,0
15.12.2017 03:00:00 10,0 3,3 55 30 95 51 NW 1000,1 - 0,2
15.12.2017 02:00:00 9,9 4,3 57 31 75 40 WNW 1000,0 - 0,0
15.12.2017 01:00:00 9,5 3,5 56 30 79 43 WNW 999,9 - 0,0
15.12.2017 00:00:00 10,0 2,8 56 30 78 42 WNW 999,5 - 0,0
14.12.2017 23:00:00 9,7 3,9 57 31 85 46 WNW 998,9 - 0,0
14.12.2017 22:00:00 8,3 4,3 73 40 98 53 WNW 998,2 - 0,2
14.12.2017 21:00:00 9,4 4,8 57 31 90 48 W 997,4 - 0,0
14.12.2017 20:00:00 8,4 4,4 71 39 106 57 WNW 997,1 - 0,2
14.12.2017 19:00:00 7,9 4,3 69 38 95 51 WNW 997,4 15 0,2
14.12.2017 18:00:00 9,4 2,5 63 34 101 54 WNW 997,6 - 0,0
14.12.2017 17:00:00 7,3 1,8 69 37 111 60 W 997,7 - 0,2
14.12.2017 16:00:00 8,9 4,1 55 30 98 53 W 997,4 15 0,0
14.12.2017 15:00:00 7,7 3,5 45 24 94 51 W 998,4 - 1,2
14.12.2017 14:00:00 6,8 4,3 75 40 98 53 WNW 999,3 - 0,4
14.12.2017 13:00:00 9,3 4,7 48 26 109 59 W 1000,1 14 0,8
14.12.2017 12:00:00 9,5 4,3 51 27 90 49 W 1000,9 - 0,6
14.12.2017 11:00:00 8,8 5,5 55 30 109 59 W 1001,8 - 0,8
14.12.2017 10:00:00 9,0 4,8 36 20 74 40 W 1002,0 12 0,0
14.12.2017 09:00:00 8,7 4,9 41 22 90 49 W 1003,0 - 0,2
14.12.2017 08:00:00 9,4 3,1 62 34 106 57 W 1003,1 - 0,4
14.12.2017 07:00:00 8,8 5,9 50 27 95 51 W 1003,5 15 1,0
14.12.2017 06:00:00 9,3 3,5 55 30 83 45 W 1004,3 - 0,0
14.12.2017 05:00:00 9,3 4,5 52 28 91 49 W 1005,1 - 0,2
14.12.2017 04:00:00 9,7 3,0 58 31 89 48 W 1005,8 - 0,0
14.12.2017 03:00:00 9,6 2,7 66 35 91 49 W 1006,0 - 0,0
14.12.2017 02:00:00 8,7 3,9 49 27 103 56 W 1006,1 - 0,0
14.12.2017 01:00:00 9,3 2,6 61 33 84 45 W 1005,9 - 0,0
14.12.2017 00:00:00 10,0 2,8 55 30 92 50 WNW 1005,7 - 0,0
13.12.2017 23:00:00 9,9 3,0 64 35 101 55 WNW 1005,1 - 0,0
13.12.2017 22:00:00 8,6 4,8 73 40 107 58 WNW 1004,3 - 0,6
13.12.2017 21:00:00 10,1 6,8 76 41 125 67 W 1003,3 - 0,2
13.12.2017 20:00:00 11,1 5,0 58 31 89 48 W 1002,9 - 0,0
13.12.2017 19:00:00 10,8 4,0 59 32 88 47 W 1003,2 10 0,0
13.12.2017 18:00:00 10,8 6,5 54 29 96 52 W 1003,3 - 0,2
13.12.2017 17:00:00 10,8 7,8 57 31 83 45 WNW 1002,8 - 0,2
13.12.2017 16:00:00 11,7 8,5 55 30 76 41 W 1002,0 6 0,0
13.12.2017 15:00:00 11,5 10,1 45 24 67 36 W 1001,3 - 0,2
13.12.2017 14:00:00 11,6 10,3 30 16 54 29 ZW 1001,6 - 0,0
13.12.2017 13:00:00 11,0 9,9 29 15 53 28 ZW 1002,9 6 1,0
13.12.2017 12:00:00 10,4 8,8 20 11 48 26 ZW 1004,7 - 0,2
13.12.2017 11:00:00 10,7 7,8 22 12 39 21 ZW 1005,7 - 0,0
13.12.2017 10:00:00 10,3 7,5 22 12 49 26 ZW 1006,8 10 0,0
13.12.2017 09:00:00 10,1 7,7 32 18 55 30 WZW 1007,6 - 0,2
13.12.2017 08:00:00 10,6 7,8 23 12 55 30 ZW 1008,2 - 0,0
13.12.2017 07:00:00 9,9 7,7 29 16 53 28 WZW 1008,7 8 0,4
13.12.2017 06:00:00 10,1 6,1 29 15 58 32 W 1008,6 - 0,2
13.12.2017 05:00:00 10,6 7,5 48 26 65 35 W 1008,9 - 0,0
13.12.2017 04:00:00 11,3 6,8 38 20 56 30 W 1008,8 - 0,0
13.12.2017 03:00:00 11,1 7,2 45 24 63 34 W 1009,0 - 0,0
13.12.2017 02:00:00 11,3 7,6 50 27 62 33 W 1008,6 - 0,0
13.12.2017 01:00:00 11,1 9,8 27 15 50 27 ZW 1008,4 - 0,0
13.12.2017 00:00:00 10,3 9,2 20 11 42 23 ZZW 1008,6 - 0,0
12.12.2017 23:00:00 9,6 8,4 22 12 41 22 ZZW 1009,3 - 0,2
12.12.2017 22:00:00 8,9 7,2 21 11 47 25 ZZW 1010,6 - 0,0
12.12.2017 21:00:00 9,5 5,3 26 14 58 31 ZZW 1011,3 - 0,0

tt = temperatuur
td = dauwpunt
ff = windsnelheid
fx = windstoten
dd = windrichting
ppp = luchtdruk
vv = zicht
rr = neerslag

Weerstations in de omgeving